DW1912 Weather Reports


Display with metric or nautical units.
time (UTC)temp
F
wind
direction
speed
MPH
gust
MPH
rain 1hr
in
rain 24hr
in
rain mn
in
humidity
%
barometer
mb
20260508110705 37 227 5.0 10.0 0.10 0.20 0.20 91 1007.6
20260508110205 38 234 4.0 12.0 0.08 0.18 0.18 91 1007.5
20260508103702 34 0 0.0 0.0 0.00 0.06 0.06 97 1005.3
20260508103205 39 211 5.0 12.0 0.06 0.16 0.16 93 1007.1
20260508103202 34 0 0.0 0.0 0.00 0.06 0.06 97 1005.3
20260508100704 40 235 4.0 12.0 0.00 0.10 0.10 89 1006.8
20260508100702 34 0 0.0 0.0 0.01 0.06 0.06 96 1005.0
20260508100204 40 237 6.0 14.0 0.00 0.10 0.10 85 1006.8
20260508100202 34 0 0.0 0.0 0.01 0.06 0.06 96 1005.0
20260508093705 42 228 6.0 12.0 0.00 0.10 0.10 82 1006.6
20260508093702 34 0 0.0 0.0 0.01 0.06 0.06 94 1004.9
20260508093205 41 251 7.0 13.0 0.00 0.10 0.10 78 1006.5
20260508093202 35 0 0.0 0.0 0.01 0.06 0.06 95 1004.8
20260508090705 41 224 7.0 12.0 0.00 0.10 0.10 79 1006.5
20260508090702 34 0 0.0 0.0 0.00 0.06 0.06 95 1004.8
20260508090202 34 0 0.0 0.0 0.00 0.06 0.06 95 1004.7
20260508083704 41 230 6.0 14.0 0.00 0.10 0.10 84 1006.3
20260508083204 42 250 5.0 12.0 0.00 0.10 0.10 81 1006.3
20260508080705 41 234 5.0 10.0 0.00 0.10 0.10 79 1006.2
20260508080702 35 0 0.0 0.0 0.02 0.06 0.06 90 1004.3
20260508080204 41 230 5.0 9.0 0.00 0.10 0.10 81 1006.1
20260508080202 35 0 0.0 0.0 0.02 0.06 0.06 90 1004.2
20260508073704 39 215 5.0 7.0 0.00 0.10 0.10 86 1006.1
20260508073702 34 0 0.0 0.0 0.02 0.05 0.05 94 1004.0
20260508073204 39 224 4.0 9.0 0.00 0.10 0.10 85 1006.1
20260508070704 39 240 3.0 7.0 0.00 0.10 0.10 91 1006.0
20260508070702 34 0 0.0 0.0 0.01 0.04 0.04 91 1004.1
20260508070204 39 230 3.0 8.0 0.00 0.10 0.10 91 1005.9
20260508063702 35 0 0.0 0.0 0.00 0.03 0.03 86 1004.0
20260508063204 39 225 2.0 7.0 0.01 0.10 0.10 88 1005.9
20260508063202 34 0 0.0 0.0 0.00 0.03 0.03 86 1003.9
20260508060204 38 222 1.0 7.0 0.01 0.10 0.10 88 1005.6
20260508053704 39 213 3.0 6.0 0.00 0.09 0.09 85 1005.7
20260508053203 39 235 2.0 9.0 0.00 0.09 0.09 84 1005.4
20260508050704 40 229 5.0 9.0 0.05 0.09 0.09 84 1005.2
20260508050204 39 219 6.0 8.0 0.05 0.09 0.09 85 1005.1
20260508043703 34 0 0.0 0.0 0.01 0.02 0.02 97 1003.3
20260508043203 34 0 0.0 0.0 0.00 0.02 0.02 97 1003.4
20260508040702 34 0 0.0 0.0 0.00 0.02 0.02 95 1003.4
20260508040204 40 274 2.0 8.0 0.03 0.04 0.04 87 1005.2
20260508040202 34 0 0.0 0.0 0.00 0.02 0.02 95 1003.3
20260508033704 41 221 1.0 3.0 0.01 0.02 0.02 85 1005.3
20260508033204 41 230 1.0 3.0 0.01 0.02 0.02 87 1005.5
20260508030705 41 216 1.0 3.0 0.01 0.01 0.01 90 1005.6
20260508030205 41 216 1.0 3.0 0.01 0.01 0.01 92 1005.7
20260508030202 35 0 0.0 0.0 0.01 0.02 0.02 93 1004.0
20260508023705 41 160 0.0 3.0 0.01 0.01 0.01 93 1005.8
20260508023703 36 0 0.0 0.0 0.00 0.01 0.01 93 1004.1
20260508023205 41 180 2.0 3.0 0.01 0.01 0.01 94 1005.9
20260508023203 36 0 0.0 0.0 0.00 0.01 0.01 94 1004.3
20260508020704 41 195 1.0 3.0 0.00 0.00 0.00 93 1006.2
20260508020205 41 196 1.0 3.0 0.00 0.00 0.00 93 1006.2
20260508020203 37 0 0.0 0.0 0.01 0.01 0.01 96 1004.5
20260508013704 41 142 2.0 3.0 0.00 0.00 0.00 92 1006.5
20260508013205 41 161 1.0 3.0 0.00 0.00 0.00 92 1006.6
20260508013203 37 0 0.0 0.0 0.01 0.01 0.01 94 1004.9
20260508010704 42 201 1.0 2.0 0.00 0.00 0.00 90 1006.6
20260508003705 44 216 1.0 3.0 0.00 0.00 0.00 81 1006.8
20260508003703 39 0 0.0 0.0 0.00 0.00 0.00 90 1005.4
20260508003204 44 208 2.0 6.0 0.00 0.00 0.00 79 1006.8
20260508000704 44 216 3.0 6.0 0.00 0.00 0.00 78 1007.0
20260508000205 44 211 2.0 5.0 0.00 0.00 0.00 79 1007.0
20260507233704 44 224 2.0 6.0 0.00 0.00 0.00 78 1007.2
20260507233205 44 219 3.0 7.0 0.00 0.00 0.00 78 1007.3
20260507233203 39 0 0.0 0.0 0.00 0.00 0.00 88 1005.9
20260507230704 45 214 2.0 5.0 0.00 0.00 0.00 77 1007.5
20260507230204 45 213 3.0 7.0 0.00 0.00 0.00 77 1007.4
20260507223705 45 210 3.0 7.0 0.00 0.00 0.00 77 1007.7
20260507223703 39 0 0.0 0.0 0.00 0.00 0.00 87 1006.2
20260507223203 39 0 0.0 0.0 0.00 0.00 0.00 88 1006.3
20260507220704 45 229 2.0 5.0 0.00 0.00 0.00 77 1008.0
20260507220204 45 222 2.0 5.0 0.00 0.00 0.00 77 1008.1
20260507213704 44 230 2.0 3.0 0.00 0.00 0.00 82 1008.3
20260507213204 44 220 2.0 6.0 0.00 0.00 0.00 83 1008.4
20260507210204 43 230 1.0 3.0 0.00 0.00 0.00 85 1008.3
20260507203703 37 0 0.0 0.0 0.00 0.00 0.00 96 1006.3
20260507203204 43 157 0.0 2.0 0.00 0.00 0.00 82 1008.0
20260507200705 45 213 0.0 2.0 0.00 0.00 0.00 78 1007.7
20260507200204 45 218 0.0 3.0 0.00 0.00 0.00 77 1007.6
20260507193704 45 213 1.0 3.0 0.00 0.00 0.00 75 1007.4
20260507193204 40 0 0.0 0.0 0.00 0.00 0.00 83 1005.7
20260507190705 46 233 1.0 3.0 0.00 0.00 0.00 72 1006.9
20260507190703 39 0 0.0 0.0 0.00 0.00 0.00 94 1005.4
20260507190204 47 226 2.0 5.0 0.00 0.00 0.00 71 1006.9
20260507183703 40 0 0.0 0.0 0.00 0.00 0.00 93 1005.5
20260507183204 48 227 2.0 5.0 0.00 0.00 0.00 69 1006.8
20260507180705 47 310 2.0 3.0 0.00 0.00 0.00 78 1006.7
20260507180703 40 0 0.0 0.0 0.00 0.01 0.00 94 1005.4
20260507180205 47 301 2.0 7.0 0.00 0.00 0.00 78 1006.7
20260507180203 40 0 0.0 0.0 0.00 0.01 0.00 94 1005.4
20260507173705 48 292 3.0 6.0 0.00 0.00 0.00 74 1006.9
20260507173204 40 0 0.0 0.0 0.00 0.02 0.00 93 1005.7
20260507170705 50 290 3.0 7.0 0.00 0.00 0.00 72 1006.9
20260507170205 50 292 4.0 9.0 0.00 0.00 0.00 71 1006.9
20260507170203 42 0 0.0 0.0 0.00 0.03 0.00 90 1005.7
20260507163705 50 280 6.0 12.0 0.00 0.00 0.00 70 1006.9
20260507163702 41 0 0.0 0.0 0.00 0.05 0.00 90 1005.8
20260507163205 51 332 3.0 12.0 0.00 0.00 0.00 68 1006.9
20260507163202 41 0 0.0 0.0 0.00 0.05 0.00 91 1005.7
20260507160705 51 286 4.0 9.0 0.00 0.00 0.00 68 1007.1
20260507160701 42 0 0.0 0.0 0.00 0.06 0.00 87 1005.8
20260507160205 51 293 5.0 12.0 0.00 0.00 0.00 65 1007.0
20260507160202 42 0 0.0 0.0 0.00 0.06 0.00 88 1005.8
20260507153705 50 274 5.0 9.0 0.00 0.00 0.00 70 1007.0
20260507153701 42 0 0.0 0.0 0.00 0.06 0.00 88 1005.8
20260507153205 50 262 5.0 12.0 0.00 0.00 0.00 70 1007.2
20260507150704 50 236 5.0 12.0 0.00 0.00 0.00 68 1007.5
20260507150202 41 0 0.0 0.0 0.00 0.06 0.00 92 1006.1
20260507143704 51 234 5.0 13.0 0.00 0.00 0.00 66 1007.7
20260507143702 42 0 0.0 0.0 0.00 0.06 0.00 87 1006.0
20260507143204 50 215 7.0 15.0 0.00 0.00 0.00 66 1007.9
20260507143202 42 0 0.0 0.0 0.00 0.06 0.00 88 1006.1
20260507140704 50 233 6.0 10.0 0.00 0.00 0.00 66 1008.0
20260507140204 50 227 6.0 14.0 0.00 0.00 0.00 65 1008.1
20260507140202 42 0 0.0 0.0 0.00 0.06 0.00 86 1006.2
20260507133705 51 228 7.0 12.0 0.00 0.00 0.00 65 1007.9
20260507133701 42 0 0.0 0.0 0.00 0.06 0.00 85 1006.2
20260507133204 50 218 7.0 13.0 0.00 0.00 0.00 65 1008.0
20260507130704 50 261 6.0 14.0 0.00 0.00 0.00 61 1008.2
20260507130702 42 0 0.0 0.0 0.00 0.06 0.00 86 1006.4
20260507130204 51 210 6.0 20.0 0.00 0.00 0.00 63 1008.1
20260507130202 41 0 0.0 0.0 0.00 0.06 0.00 89 1006.5
20260507123704 50 225 10.0 17.0 0.00 0.00 0.00 57 1008.2
20260507123702 42 0 0.0 0.0 0.00 0.06 0.00 78 1006.5
20260507123202 43 0 0.0 0.0 0.00 0.06 0.00 76 1006.5
20260507120704 48 223 9.0 12.0 0.00 0.00 0.00 64 1008.5
20260507120701 42 0 0.0 0.0 0.00 0.06 0.00 83 1006.7
20260507120204 48 230 9.0 17.0 0.00 0.00 0.00 66 1008.4
20260507120202 42 0 0.0 0.0 0.00 0.06 0.00 85 1006.6
20260507113704 49 223 9.0 15.0 0.00 0.00 0.00 67 1008.5
20260507113701 42 0 0.0 0.0 0.00 0.06 0.00 83 1006.8
20260507113204 49 213 9.0 14.0 0.00 0.00 0.00 71 1008.6
20260507113202 42 0 0.0 0.0 0.00 0.06 0.00 82 1006.7